TimeMST,TemperatureF,Dew PointF,Humidity,Sea Level PressureIn,VisibilityMPH,Wind Direction,Wind SpeedMPH,Gust SpeedMPH,PrecipitationIn,Events,Conditions,WindDirDegrees,DateUTC
5:00 AM,9,4,71,30.36,6,NNW,5.8,,,Snow,Light Snow,330,2013-01-13 12:00:00
5:00 AM,8.6,3.2,79,30.36,6.0,NNW,5.8,-,N/A,Snow,Light Snow,330,2013-01-13 12:00:00
6:00 AM,10.4,5.0,79,30.33,5.0,NNW,6.9,-,N/A,Snow,Light Snow,330,2013-01-13 13:00:00
7:00 AM,10.4,5.0,79,30.35,5.0,NW,5.8,-,N/A,Snow,Light Snow,320,2013-01-13 14:00:00
8:00 AM,10.4,5.0,79,30.35,5.0,North,5.8,-,N/A,Snow,Light Snow,360,2013-01-13 15:00:00
9:00 AM,10.4,5.0,79,30.35,5.0,NNW,4.6,-,N/A,Snow,Light Snow,330,2013-01-13 16:00:00
10:00 AM,10.4,5.0,79,30.36,5.0,Calm,Calm,-,N/A,Snow,Light Snow,0,2013-01-13 17:00:00
11:00 AM,11,6,69,30.34,19,ENE,3.5,,,Snow,Light Snow,60,2013-01-13 18:00:00
11:00 AM,10.4,5.0,79,30.34,20.0,ENE,2.3,-,N/A,Snow,Light Snow,70,2013-01-13 18:00:00
12:00 PM,12.2,5.0,73,30.31,20.0,Calm,Calm,-,N/A,,Mostly Cloudy,0,2013-01-13 19:00:00
1:00 PM,14.0,5.0,67,30.30,30.0,SSW,3.5,-,N/A,,Mostly Cloudy,200,2013-01-13 20:00:00
2:00 PM,14.0,6.8,73,30.28,30.0,SW,2.3,-,N/A,,Mostly Cloudy,220,2013-01-13 21:00:00
3:00 PM,15.8,6.8,68,30.27,30.0,SSW,3.5,-,N/A,,Mostly Cloudy,200,2013-01-13 22:00:00
4:00 PM,15.8,8.6,73,30.28,20.0,Calm,Calm,-,N/A,,Overcast,0,2013-01-13 23:00:00
4:45 PM,15.8,8.6,73,30.28,8.0,Calm,Calm,-,N/A,Snow,Light Snow,0,2013-01-13 23:45:00
4:51 PM,15.8,8.6,73,30.28,6.0,Calm,Calm,-,N/A,Snow,Light Snow,0,2013-01-13 23:51:00
5:00 PM,15,9,66,30.27,6,SSW,2.3,,,Snow,Light Snow,200,2013-01-14 00:00:00
5:00 PM,15.8,8.6,73,30.27,6.0,South,3.5,-,N/A,Snow,Light Snow,190,2013-01-14 00:00:00
6:00 PM,12.2,8.6,85,30.28,5.0,South,5.8,-,N/A,Snow,Light Snow,190,2013-01-14 01:00:00
7:00 PM,14.0,8.6,79,30.28,6.0,SW,5.8,-,N/A,Snow,Light Snow,220,2013-01-14 02:00:00
8:00 PM,14.0,10.4,86,30.29,3.0,WSW,3.5,-,N/A,Snow,Light Snow,250,2013-01-14 03:00:00
8:20 PM,14.0,10.4,86,30.29,2.0,WNW,3.5,-,N/A,Snow,Light Snow,300,2013-01-14 03:20:00
9:00 PM,14.0,10.4,86,30.29,2.0,NNW,3.5,-,N/A,Snow,Light Snow,340,2013-01-14 04:00:00
10:00 PM,14.0,10.4,86,30.03,2.5,NNW,4.6,-,N/A,Snow,Light Snow,330,2013-01-14 05:00:00